When you browse on this site, cookies collect data to enhance your experience and personalize the content and advertising you see.
Visit our Privacy Policy to learn more. By continuing to use the site, you agree to this use of cookies and data.
  • In Czech Republic
  • List of Countries
  • For 7 days
  • Water Temperature
  • Weather Map
  • Weather Widgets
  • user-avatar
    Login

    Hourly Weather Onzaga

    Today, 25 February, Tuesday

    Time Temperature Precipitation Wind Pressure Humidity
    00:00 +14°C° 0.1 mm 0 mps 590 mmHg 93%
    01:00 +15°C° 0 mm 1 mps 590 mmHg 92%
    02:00 +15°C° 0 mm 1 mps 590 mmHg 92%
    03:00 +15°C° 0 mm 1 mps 589 mmHg 92%
    04:00 +15°C° 0 mm 1 mps 589 mmHg 92%
    05:00 +15°C° 0 mm 1 mps 589 mmHg 91%
    06:00 +15°C° 0 mm 1 mps 590 mmHg 89%
    07:00 +16°C° 0 mm 1 mps 591 mmHg 88%
    08:00 +19°C° 0 mm 1 mps 592 mmHg 80%
    09:00 +21°C° 0 mm 1 mps 593 mmHg 72%
    10:00 +23°C° 0 mm 1 mps 594 mmHg 64%
    11:00 +24°C° 0.4 mm 1 mps 594 mmHg 64%
    12:00 +24°C° 0.4 mm 2 mps 593 mmHg 65%
    13:00 +25°C° 0.4 mm 2 mps 593 mmHg 65%
    14:00 +24°C° 0.8 mm 2 mps 592 mmHg 70%
    15:00 +23°C° 0.8 mm 2 mps 591 mmHg 75%
    16:00 +22°C° 0.8 mm 1 mps 590 mmHg 80%
    17:00 +20°C° 0.6 mm 1 mps 590 mmHg 85%
    18:00 +19°C° 0.6 mm 1 mps 590 mmHg 90%
    19:00 +16°C° 0.6 mm 0 mps 590 mmHg 95%
    20:00 +16°C° 0.2 mm 0 mps 590 mmHg 95%
    21:00 +15°C° 0.2 mm 0 mps 590 mmHg 95%
    22:00 +15°C° 0.2 mm 0 mps 591 mmHg 95%
    23:00 +14°C° 0.1 mm 0 mps 590 mmHg 95%

    Tomorrow, 26 February, Wednesday

    Time Temperature Precipitation Wind Pressure Humidity
    00:00 +14°C° 0.1 mm 0 mps 590 mmHg 95%
    01:00 +14°C° 0.1 mm 0 mps 590 mmHg 95%
    02:00 +14°C° 0.1 mm 0 mps 590 mmHg 94%
    03:00 +14°C° 0.1 mm 0 mps 589 mmHg 93%
    04:00 +14°C° 0.1 mm 0 mps 589 mmHg 92%
    05:00 +14°C° 0.1 mm 0 mps 590 mmHg 91%
    06:00 +14°C° 0.1 mm 0 mps 590 mmHg 89%
    07:00 +15°C° 0.1 mm 0 mps 591 mmHg 88%
    08:00 +18°C° 0 mm 1 mps 592 mmHg 82%
    09:00 +20°C° 0 mm 1 mps 593 mmHg 77%
    10:00 +22°C° 0 mm 1 mps 594 mmHg 72%
    11:00 +23°C° 0.1 mm 2 mps 594 mmHg 68%
    12:00 +24°C° 0.1 mm 2 mps 593 mmHg 65%
    13:00 +25°C° 0.1 mm 2 mps 593 mmHg 62%
    14:00 +24°C° 0.4 mm 2 mps 592 mmHg 66%
    15:00 +23°C° 0.4 mm 2 mps 591 mmHg 70%
    16:00 +23°C° 0.4 mm 2 mps 591 mmHg 74%
    17:00 +21°C° 0.7 mm 1 mps 590 mmHg 82%
    18:00 +19°C° 0.7 mm 1 mps 590 mmHg 89%
    19:00 +16°C° 0.7 mm 0 mps 590 mmHg 96%
    20:00 +16°C° 0.2 mm 0 mps 590 mmHg 96%
    21:00 +15°C° 0.2 mm 0 mps 591 mmHg 96%
    22:00 +15°C° 0.2 mm 0 mps 591 mmHg 96%
    23:00 +15°C° 0.1 mm 0 mps 591 mmHg 96%

    Day after tomorrow, 27 February, Thursday

    Time Temperature Precipitation Wind Pressure Humidity
    00:00 +15°C° 0.1 mm 0 mps 591 mmHg 95%
    01:00 +15°C° 0.1 mm 0 mps 590 mmHg 94%
    02:00 +15°C° 0.1 mm 0 mps 590 mmHg 94%
    03:00 +14°C° 0.1 mm 0 mps 590 mmHg 93%
    04:00 +14°C° 0.1 mm 0 mps 589 mmHg 92%
    05:00 +14°C° 0 mm 0 mps 590 mmHg 91%
    06:00 +15°C° 0 mm 0 mps 590 mmHg 89%
    07:00 +15°C° 0 mm 0 mps 591 mmHg 88%
    08:00 +19°C° 0 mm 1 mps 592 mmHg 81%
    09:00 +21°C° 0 mm 1 mps 593 mmHg 74%
    10:00 +22°C° 0 mm 1 mps 594 mmHg 68%
    11:00 +23°C° 0.1 mm 2 mps 594 mmHg 64%
    12:00 +24°C° 0.1 mm 2 mps 594 mmHg 61%
    13:00 +25°C° 0.1 mm 2 mps 593 mmHg 57%
    14:00 +24°C° 0.4 mm 2 mps 593 mmHg 63%
    15:00 +23°C° 0.4 mm 2 mps 592 mmHg 69%
    16:00 +21°C° 0.4 mm 2 mps 591 mmHg 74%
    17:00 +21°C° 0.7 mm 1 mps 591 mmHg 81%
    18:00 +19°C° 0.7 mm 1 mps 590 mmHg 89%
    19:00 +15°C° 0.7 mm 0 mps 590 mmHg 96%
    20:00 +15°C° 0.2 mm 0 mps 590 mmHg 95%
    21:00 +15°C° 0.2 mm 0 mps 591 mmHg 95%
    22:00 +15°C° 0.2 mm 0 mps 591 mmHg 95%
    23:00 +14°C° 0.1 mm 0 mps 591 mmHg 94%

    28 February, Friday

    Time Temperature Precipitation Wind Pressure Humidity
    00:00 +14°C° 0.1 mm 0 mps 590 mmHg 94%
    01:00 +14°C° 0.1 mm 0 mps 590 mmHg 93%
    02:00 +14°C° 0.1 mm 0 mps 590 mmHg 92%
    03:00 +14°C° 0.1 mm 0 mps 590 mmHg 91%
    04:00 +14°C° 0.1 mm 0 mps 589 mmHg 90%
    05:00 +14°C° 0 mm 0 mps 590 mmHg 89%
    06:00 +14°C° 0 mm 0 mps 591 mmHg 88%
    07:00 +16°C° 0 mm 1 mps 591 mmHg 87%
    08:00 +18°C° 0.1 mm 1 mps 592 mmHg 80%
    09:00 +20°C° 0.1 mm 1 mps 593 mmHg 74%
    10:00 +22°C° 0.1 mm 1 mps 594 mmHg 68%
    11:00 +22°C° 0.2 mm 1 mps 594 mmHg 67%
    12:00 +23°C° 0.2 mm 1 mps 594 mmHg 66%
    13:00 +23°C° 0.2 mm 2 mps 593 mmHg 66%
    14:00 +23°C° 0.5 mm 2 mps 592 mmHg 69%
    15:00 +21°C° 0.5 mm 2 mps 592 mmHg 73%
    16:00 +22°C° 0.5 mm 1 mps 591 mmHg 76%
    17:00 +21°C° 0.4 mm 1 mps 591 mmHg 83%
    18:00 +19°C° 0.4 mm 1 mps 590 mmHg 90%
    19:00 +16°C° 0.4 mm 0 mps 590 mmHg 96%
    20:00 +15°C° 0.2 mm 0 mps 590 mmHg 96%
    21:00 +15°C° 0.2 mm 0 mps 591 mmHg 96%
    22:00 +15°C° 0.2 mm 0 mps 591 mmHg 95%
    23:00 +15°C° 0.1 mm 0 mps 591 mmHg 95%

    29 February, Saturday

    Time Temperature Precipitation Wind Pressure Humidity
    00:00 +14°C° 0.1 mm 0 mps 590 mmHg 94%
    01:00 +14°C° 0.1 mm 0 mps 590 mmHg 94%
    02:00 +14°C° 0.1 mm 0 mps 590 mmHg 94%
    03:00 +14°C° 0.1 mm 0 mps 590 mmHg 94%
    04:00 +15°C° 0.1 mm 0 mps 590 mmHg 93%
    05:00 +15°C° 0 mm 0 mps 591 mmHg 93%
    06:00 +15°C° 0 mm 0 mps 591 mmHg 93%
    07:00 +15°C° 0 mm 0 mps 592 mmHg 92%
    08:00 +16°C° 0.2 mm 0 mps 592 mmHg 87%
    09:00 +20°C° 0.2 mm 1 mps 593 mmHg 82%
    10:00 +21°C° 0.2 mm 1 mps 594 mmHg 77%
    11:00 +22°C° 0.4 mm 1 mps 594 mmHg 73%
    12:00 +23°C° 0.4 mm 1 mps 594 mmHg 69%
    13:00 +24°C° 0.4 mm 1 mps 593 mmHg 66%
    14:00 +23°C° 0.8 mm 1 mps 592 mmHg 70%
    15:00 +22°C° 0.8 mm 1 mps 592 mmHg 75%
    16:00 +22°C° 0.8 mm 1 mps 591 mmHg 80%
    17:00 +20°C° 0.9 mm 1 mps 591 mmHg 85%
    18:00 +19°C° 0.9 mm 1 mps 590 mmHg 90%
    19:00 +16°C° 0.9 mm 0 mps 590 mmHg 94%
    20:00 +15°C° 0.3 mm 0 mps 591 mmHg 94%
    21:00 +15°C° 0.3 mm 0 mps 591 mmHg 95%
    22:00 +15°C° 0.3 mm 0 mps 591 mmHg 95%
    23:00 +15°C° 0.2 mm 0 mps 591 mmHg 95%

    1 March, Sunday

    Time Temperature Precipitation Wind Pressure Humidity
    00:00 +15°C° 0.2 mm 0 mps 591 mmHg 94%
    01:00 +15°C° 0.2 mm 0 mps 590 mmHg 94%
    02:00 +15°C° 0.2 mm 0 mps 590 mmHg 94%
    03:00 +15°C° 0.2 mm 0 mps 590 mmHg 93%
    04:00 +15°C° 0.2 mm 0 mps 590 mmHg 93%
    05:00 +15°C° 0.1 mm 0 mps 591 mmHg 92%
    06:00 +15°C° 0.1 mm 0 mps 591 mmHg 91%
    07:00 +15°C° 0.1 mm 0 mps 592 mmHg 90%
    08:00 +19°C° 0.1 mm 1 mps 593 mmHg 84%
    09:00 +20°C° 0.1 mm 1 mps 593 mmHg 77%
    10:00 +22°C° 0.1 mm 1 mps 594 mmHg 70%
    11:00 +23°C° 0.3 mm 1 mps 594 mmHg 68%
    12:00 +23°C° 0.3 mm 1 mps 594 mmHg 66%
    13:00 +24°C° 0.3 mm 2 mps 593 mmHg 64%
    14:00 +23°C° 0.8 mm 1 mps 592 mmHg 68%
    15:00 +23°C° 0.8 mm 1 mps 592 mmHg 72%
    16:00 +22°C° 0.8 mm 1 mps 591 mmHg 77%
    17:00 +21°C° 0.8 mm 1 mps 591 mmHg 82%
    18:00 +19°C° 0.8 mm 1 mps 590 mmHg 87%
    19:00 +16°C° 0.8 mm 0 mps 590 mmHg 93%
    20:00 +16°C° 0.4 mm 0 mps 590 mmHg 92%
    21:00 +16°C° 0.4 mm 0 mps 591 mmHg 91%
    22:00 +16°C° 0.4 mm 0 mps 591 mmHg 91%
    23:00 +15°C° 0.2 mm 0 mps 591 mmHg 91%
    Show more